Weather Roundup
Issued by NWS Chicago, IL

Home | Current Version | Previous Version | Text Only | Print | Product List | Glossary On
Versions: 1 2 3 4 5 6 7 8 9 10 11 12 13 14 15 16 17 18 19 20 21 22 23 24 25 26 27 28 29 30 31 32 33 34 35 36 37 38 39 40 41 42 43 44 45 46 47 48 49 50
000
NZUS59 KLOT 241908
HRRLOT

CHICAGO AREA WEATHER ROUNDUP
NATIONAL WEATHER SERVICE CHICAGO/ROMEOVILLE IL
100 PM CST SAT FEB 24 2018

NOTE: "FAIR" INDICATES FEW OR NO CLOUDS BELOW 12,000 FEET WITH NO
SIGNIFICANT WEATHER AND/OR OBSTRUCTIONS TO VISIBILITY.

* THESE STATIONS ARE NOT UNDER NWS QUALITY CONTROL. THEY ALSO MAY NOT
  REPORT WEATHER SUCH AS PRECIPITATION OR FOG.

ILZ005-006-012>014-019>023-242000-
NORTHEAST ILLINOIS

CITY           SKY/WX    TMP DP  RH WIND       PRES   REMARKS
OHARE          CLOUDY    38  31  76 E10       30.01F
MIDWAY         CLOUDY    39  33  79 NE9       30.01F
AURORA         CLOUDY    41  34  76 E13       29.98F
LANSING*       CLOUDY    43  40  88 E8        29.99F
JOLIET*        CLOUDY    44  38  77 E8        29.97F
WAUKEGAN       CLOUDY    35  31  85 E10       30.04R FOG     WCI  27
DUPAGE AIRPORT CLOUDY    39  34  82 E12       29.98F
WHEELING       CLOUDY    38  32  79 E8        30.04F
KANKAKEE*      CLOUDY    43  40  89 E9        29.97F
MORRIS*        CLOUDY    43  38  84 E15       29.96F
LEWIS AIRPORT* CLOUDY    41  35  81 NE12      29.97F
NORTHERLY ISL    N/A     35  32  88 NE9         N/A  WCI  28
$$

WIZ051-052-058>065-066-070>072-242000-
SOUTHEAST WISCONSIN

CITY           SKY/WX    TMP DP  RH WIND       PRES   REMARKS
MILWAUKEE      CLOUDY    37  31  78 E13       30.05F
KENOSHA*       CLOUDY    37  30  75 E15       30.03F
RACINE*        CLOUDY    36  31  82 E13       30.06F
BURLINGTON     CLOUDY    36  30  80 E16       30.02F
WAUKESHA       CLOUDY    34  28  80 E15       30.03F WCI  24
WEST BEND      CLOUDY    36  30  80 E16       30.03F
$$

INZ001>003-010>013-019-020-242000-
NORTHWEST INDIANA

CITY           SKY/WX    TMP DP  RH WIND       PRES   REMARKS
GARY*          CLOUDY    45  37  76 SE14      30.00F
MICHIGAN CITY* NOT AVBL
RENSSELAER*    NOT AVBL
VALPARAISO     CLOUDY    43  38  82 E15       29.99F
$$

LMZ740>746-242000-
SOUTHERN LAKE MICHIGAN

STATION/POSITION TIME  SKY/WX   TEMP WIND        PRES    VSBY
                                AIR  DIR/SP/G
                 (UTC)          (F)  (DEG/KT/KT) (MB)    (MI)
HARRISON CRIB    1840            35   60/ 12/ 14   N/A
BURNHAM HARBOR   1900            36   30/  6/ 12   N/A
CALUMET HARBOR   1848            36   30/ 10/ 12 1015.6F
BURNS HARBOR     1840            42  110/ 11/ 15 1016.6F
MICHIGAN CITY    1840            42  100/ 14/ 17   N/A
$$

ABBREVIATIONS USED IN REMARKS
   TC - TEMPERATURE IN CELSIUS
  WCI - WIND CHILL INDEX
   HX - HEAT INDEX
  VSB - VISIBILITY
$$




USA.gov is the U.S. government's official web portal to all federal, state and local government web resources and services.